When you browse on this site, cookies collect data to enhance your experience and personalize the content and advertising you see.
Visit our Privacy Policy to learn more. By continuing to use the site, you agree to this use of cookies and data.
  • In Lithuania
  • List of Countries
  • For 7 days
  • Water Temperature
  • Weather Map
  • Weather Widgets
  • user-avatar
    Login

    Hourly Weather Krnov

    Today, 18 January, Saturday

    Time Temperature Precipitation Wind Pressure Humidity
    00:00 -3°C° 0 mm 6 mps 736 mmHg 79%
    01:00 -2°C° 0 mm 5 mps 737 mmHg 78%
    02:00 -2°C° 0 mm 5 mps 736 mmHg 79%
    03:00 -2°C° 0 mm 5 mps 736 mmHg 79%
    04:00 -2°C° 0 mm 5 mps 736 mmHg 79%
    05:00 -2°C° 0 mm 5 mps 737 mmHg 78%
    06:00 -2°C° 0 mm 4 mps 737 mmHg 78%
    07:00 -2°C° 0 mm 4 mps 737 mmHg 81%
    08:00 -2°C° 0.3 mm 4 mps 738 mmHg 82%
    09:00 -2°C° 0.3 mm 4 mps 738 mmHg 84%
    10:00 -1°C° 0.3 mm 3 mps 738 mmHg 85%
    11:00 0°C° 0.5 mm 3 mps 738 mmHg 87%
    12:00 +1°C° 0.5 mm 2 mps 738 mmHg 89%
    13:00 +1°C° 0 mm 2 mps 738 mmHg 89%
    14:00 +1°C° 0.8 mm 2 mps 737 mmHg 91%
    15:00 +1°C° 0.8 mm 2 mps 737 mmHg 93%
    16:00 +1°C° 0.8 mm 2 mps 737 mmHg 95%
    17:00 +1°C° 0.5 mm 2 mps 737 mmHg 96%
    18:00 +1°C° 0.5 mm 2 mps 738 mmHg 96%
    19:00 +1°C° 0.5 mm 2 mps 738 mmHg 96%
    20:00 +1°C° 0.3 mm 2 mps 738 mmHg 96%
    21:00 +1°C° 0.3 mm 2 mps 738 mmHg 96%
    22:00 0°C° 0.3 mm 3 mps 738 mmHg 96%
    23:00 +1°C° 0.1 mm 2 mps 738 mmHg 95%

    Tomorrow, 19 January, Sunday

    Time Temperature Precipitation Wind Pressure Humidity
    00:00 +1°C° 0.1 mm 2 mps 738 mmHg 95%
    01:00 +2°C° 0.1 mm 1 mps 738 mmHg 94%
    02:00 +2°C° 0 mm 1 mps 738 mmHg 94%
    03:00 +2°C° 0 mm 1 mps 738 mmHg 94%
    04:00 +2°C° 0 mm 1 mps 739 mmHg 93%
    05:00 +1°C° 0.3 mm 2 mps 739 mmHg 94%
    06:00 +1°C° 0.3 mm 2 mps 739 mmHg 96%
    07:00 0°C° 0.3 mm 3 mps 740 mmHg 97%
    08:00 0°C° 0.3 mm 3 mps 740 mmHg 96%
    09:00 0°C° 0.3 mm 3 mps 741 mmHg 96%
    10:00 0°C° 0.3 mm 3 mps 741 mmHg 96%
    11:00 0°C° 0.3 mm 3 mps 741 mmHg 96%
    12:00 0°C° 0.3 mm 3 mps 742 mmHg 96%
    13:00 0°C° 0.3 mm 3 mps 742 mmHg 96%
    14:00 0°C° 0.3 mm 3 mps 742 mmHg 96%
    15:00 0°C° 0.3 mm 3 mps 743 mmHg 96%
    16:00 0°C° 0.3 mm 3 mps 743 mmHg 97%
    17:00 0°C° 0.4 mm 3 mps 744 mmHg 97%
    18:00 0°C° 0.4 mm 3 mps 744 mmHg 97%
    19:00 0°C° 0.4 mm 3 mps 745 mmHg 97%
    20:00 0°C° 0.3 mm 3 mps 745 mmHg 97%
    21:00 0°C° 0.3 mm 3 mps 746 mmHg 97%
    22:00 +1°C° 0.3 mm 2 mps 746 mmHg 97%
    23:00 +1°C° 0.3 mm 2 mps 747 mmHg 97%

    Day after tomorrow, 20 January, Monday

    Time Temperature Precipitation Wind Pressure Humidity
    00:00 +1°C° 0.3 mm 2 mps 747 mmHg 98%
    01:00 +1°C° 0.3 mm 2 mps 748 mmHg 98%
    02:00 +1°C° 0.1 mm 2 mps 748 mmHg 98%
    03:00 +1°C° 0.1 mm 2 mps 748 mmHg 98%
    04:00 +1°C° 0.1 mm 2 mps 749 mmHg 97%
    05:00 +1°C° 0 mm 2 mps 749 mmHg 97%
    06:00 +1°C° 0 mm 2 mps 750 mmHg 97%
    07:00 +1°C° 0 mm 2 mps 750 mmHg 96%
    08:00 +1°C° 0 mm 2 mps 751 mmHg 96%
    09:00 +1°C° 0 mm 2 mps 751 mmHg 95%
    10:00 +1°C° 0 mm 2 mps 752 mmHg 94%
    11:00 +1°C° 0 mm 2 mps 752 mmHg 91%
    12:00 +2°C° 0 mm 2 mps 752 mmHg 89%
    13:00 +2°C° 0 mm 2 mps 752 mmHg 87%
    14:00 +3°C° 0 mm 1 mps 752 mmHg 87%
    15:00 +2°C° 0 mm 1 mps 752 mmHg 86%
    16:00 +2°C° 0 mm 1 mps 752 mmHg 86%
    17:00 +2°C° 0 mm 1 mps 752 mmHg 86%
    18:00 0°C° 0 mm 0 mps 753 mmHg 87%
    19:00 0°C° 0 mm 0 mps 753 mmHg 87%
    20:00 0°C° 0 mm 0 mps 753 mmHg 87%
    21:00 0°C° 0 mm 1 mps 753 mmHg 87%
    22:00 0°C° 0 mm 1 mps 753 mmHg 88%
    23:00 0°C° 0 mm 1 mps 753 mmHg 87%

    21 January, Tuesday

    Time Temperature Precipitation Wind Pressure Humidity
    00:00 0°C° 0 mm 1 mps 752 mmHg 86%
    01:00 0°C° 0 mm 1 mps 752 mmHg 84%
    02:00 0°C° 0 mm 1 mps 752 mmHg 83%
    03:00 0°C° 0 mm 1 mps 751 mmHg 82%
    04:00 0°C° 0 mm 1 mps 751 mmHg 81%
    05:00 0°C° 0 mm 1 mps 751 mmHg 80%
    06:00 0°C° 0 mm 1 mps 750 mmHg 79%
    07:00 0°C° 0 mm 1 mps 750 mmHg 79%
    08:00 -2°C° 0 mm 2 mps 750 mmHg 77%
    09:00 -1°C° 0 mm 2 mps 750 mmHg 75%
    10:00 +1°C° 0 mm 2 mps 750 mmHg 73%
    11:00 +2°C° 0 mm 2 mps 749 mmHg 72%
    12:00 +3°C° 0 mm 2 mps 749 mmHg 71%
    13:00 +3°C° 0 mm 2 mps 749 mmHg 70%
    14:00 +2°C° 0 mm 2 mps 748 mmHg 73%
    15:00 +1°C° 0 mm 2 mps 748 mmHg 76%
    16:00 +1°C° 0 mm 2 mps 747 mmHg 79%
    17:00 -1°C° 0 mm 2 mps 747 mmHg 80%
    18:00 -1°C° 0 mm 2 mps 747 mmHg 80%
    19:00 -2°C° 0 mm 3 mps 747 mmHg 81%
    20:00 -2°C° 0 mm 2 mps 747 mmHg 81%
    21:00 -2°C° 0 mm 2 mps 747 mmHg 81%
    22:00 -2°C° 0 mm 2 mps 747 mmHg 82%
    23:00 -2°C° 0 mm 2 mps 746 mmHg 81%

    22 January, Wednesday

    Time Temperature Precipitation Wind Pressure Humidity
    00:00 -2°C° 0 mm 3 mps 746 mmHg 80%
    01:00 -2°C° 0 mm 3 mps 746 mmHg 78%
    02:00 -2°C° 0 mm 2 mps 745 mmHg 78%
    03:00 -3°C° 0 mm 2 mps 745 mmHg 78%
    04:00 -1°C° 0 mm 1 mps 745 mmHg 77%
    05:00 -1°C° 0 mm 1 mps 744 mmHg 76%
    06:00 -3°C° 0 mm 2 mps 744 mmHg 74%
    07:00 -3°C° 0 mm 2 mps 744 mmHg 73%
    08:00 -2°C° 0 mm 2 mps 744 mmHg 71%
    09:00 -1°C° 0 mm 2 mps 744 mmHg 69%
    10:00 +1°C° 0 mm 2 mps 744 mmHg 68%
    11:00 +1°C° 0 mm 2 mps 743 mmHg 71%
    12:00 +2°C° 0 mm 2 mps 743 mmHg 75%
    13:00 +2°C° 0 mm 2 mps 743 mmHg 78%
    14:00 +2°C° 0 mm 2 mps 743 mmHg 81%
    15:00 +1°C° 0 mm 2 mps 743 mmHg 84%
    16:00 +1°C° 0 mm 2 mps 742 mmHg 86%
    17:00 -1°C° 0 mm 3 mps 743 mmHg 87%
    18:00 -1°C° 0 mm 3 mps 743 mmHg 87%
    19:00 -2°C° 0 mm 4 mps 743 mmHg 88%
    20:00 -1°C° 0 mm 3 mps 743 mmHg 88%
    21:00 -1°C° 0 mm 3 mps 744 mmHg 89%
    22:00 0°C° 0 mm 3 mps 744 mmHg 89%
    23:00 0°C° 0 mm 3 mps 744 mmHg 90%

    23 January, Thursday

    Time Temperature Precipitation Wind Pressure Humidity
    00:00 0°C° 0 mm 3 mps 744 mmHg 90%
    01:00 -1°C° 0 mm 3 mps 745 mmHg 90%
    02:00 -1°C° 0 mm 3 mps 745 mmHg 92%
    03:00 -1°C° 0 mm 3 mps 745 mmHg 93%
    04:00 -1°C° 0 mm 3 mps 745 mmHg 95%
    05:00 -1°C° 0 mm 3 mps 745 mmHg 95%
    06:00 -2°C° 0 mm 2 mps 745 mmHg 95%
    07:00 -2°C° 0 mm 2 mps 746 mmHg 95%
    08:00 -2°C° 0 mm 2 mps 746 mmHg 92%
    09:00 -1°C° 0 mm 2 mps 746 mmHg 89%
    10:00 -1°C° 0 mm 2 mps 747 mmHg 87%
    11:00 -1°C° 0 mm 2 mps 747 mmHg 83%
    12:00 +2°C° 0 mm 1 mps 747 mmHg 79%
    13:00 +2°C° 0 mm 1 mps 747 mmHg 75%
    14:00 +2°C° 0 mm 1 mps 746 mmHg 77%
    15:00 +1°C° 0 mm 1 mps 746 mmHg 79%
    16:00 0°C° 0 mm 1 mps 746 mmHg 81%
    17:00 0°C° 0 mm 1 mps 746 mmHg 80%
    18:00 -1°C° 0 mm 1 mps 746 mmHg 80%
    19:00 -1°C° 0 mm 1 mps 745 mmHg 79%
    20:00 -1°C° 0 mm 1 mps 745 mmHg 78%
    21:00 -1°C° 0 mm 1 mps 746 mmHg 77%
    22:00 -1°C° 0 mm 1 mps 746 mmHg 76%
    23:00 -3°C° 0 mm 2 mps 745 mmHg 76%
    Show more